Time,TemperatureF,DewpointF,PressureIn,WindDirection,WindDirectionDegrees,WindSpeedMPH,WindSpeedGustMPH,Humidity,HourlyPrecipIn,Conditions,Clouds,dailyrainin,SoftwareType,DateUTC
2013-03-08 00:02:00,42.0,32.9,29.85,NNW,337,6.0,15.0,70,0.00,,,0.00,Weather View 32 v70,2013-03-08 05:02:00,
2013-03-08 00:07:00,42.0,32.9,29.85,NNW,337,6.0,15.0,70,0.00,,,0.00,Weather View 32 v70,2013-03-08 05:07:00,
2013-03-08 00:17:00,42.0,32.9,29.82,NNW,337,12.0,22.0,70,0.00,,,0.00,Weather View 32 v70,2013-03-08 05:17:00,
2013-03-08 00:32:00,41.0,32.0,29.84,NNW,337,12.0,22.0,70,0.00,,,0.00,Weather View 32 v70,2013-03-08 05:32:00,
2013-03-08 00:47:00,40.0,31.0,29.83,NNW,337,12.0,22.0,70,0.00,,,0.00,Weather View 32 v70,2013-03-08 05:47:00,
2013-03-08 01:02:00,40.0,31.0,29.84,NNW,337,12.0,22.0,70,0.00,,,0.00,Weather View 32 v70,2013-03-08 06:02:00,
2013-03-08 01:08:00,40.0,31.0,29.84,NNW,337,12.0,22.0,70,0.00,,,0.00,Weather View 32 v70,2013-03-08 06:08:00,
2013-03-08 01:17:00,39.0,30.0,29.85,NNW,337,12.0,18.0,70,0.00,,,0.00,Weather View 32 v70,2013-03-08 06:17:00,
2013-03-08 01:32:00,39.0,30.0,29.85,NNW,337,13.0,17.0,70,0.00,,,0.00,Weather View 32 v70,2013-03-08 06:32:00,
2013-03-08 01:47:00,39.0,30.0,29.85,NNW,337,10.0,16.0,70,0.00,,,0.00,Weather View 32 v70,2013-03-08 06:47:00,
2013-03-08 02:02:00,39.0,30.0,29.86,NNW,337,10.0,15.0,70,0.00,,,0.00,Weather View 32 v70,2013-03-08 07:02:00,
2013-03-08 02:08:00,39.0,30.0,29.86,NNW,337,10.0,15.0,70,0.00,,,0.00,Weather View 32 v70,2013-03-08 07:08:00,
2013-03-08 02:17:00,39.0,30.0,29.85,NNW,337,9.0,15.0,70,0.00,,,0.00,Weather View 32 v70,2013-03-08 07:17:00,
2013-03-08 02:32:00,39.0,30.0,29.85,NNW,337,10.0,15.0,70,0.00,,,0.00,Weather View 32 v70,2013-03-08 07:32:00,
2013-03-08 02:47:00,38.0,29.1,29.83,NNW,337,8.0,15.0,70,0.00,,,0.00,Weather View 32 v70,2013-03-08 07:47:00,
2013-03-08 03:02:00,38.0,29.1,29.83,NNW,337,10.0,15.0,70,0.00,,,0.00,Weather View 32 v70,2013-03-08 08:02:00,
2013-03-08 03:09:00,38.0,29.1,29.83,NNW,337,10.0,15.0,70,0.00,,,0.00,Weather View 32 v70,2013-03-08 08:09:00,
2013-03-08 03:17:00,38.0,29.1,29.83,NNW,337,10.0,15.0,70,0.00,,,0.00,Weather View 32 v70,2013-03-08 08:17:00,
2013-03-08 03:32:00,38.0,29.1,29.83,NNW,337,12.0,15.0,70,0.00,,,0.00,Weather View 32 v70,2013-03-08 08:32:00,
2013-03-08 03:47:00,37.0,28.5,29.84,NNW,337,12.0,15.0,71,0.00,,,0.00,Weather View 32 v70,2013-03-08 08:47:00,
2013-03-08 04:02:00,38.0,29.1,29.83,NNW,337,9.0,15.0,70,0.00,,,0.00,Weather View 32 v70,2013-03-08 09:02:00,
2013-03-08 04:09:00,38.0,29.1,29.83,NNW,337,9.0,15.0,70,0.00,,,0.00,Weather View 32 v70,2013-03-08 09:09:00,
2013-03-08 04:17:00,37.0,28.5,29.84,NNW,337,10.0,17.0,71,0.00,,,0.00,Weather View 32 v70,2013-03-08 09:17:00,
2013-03-08 04:32:00,37.0,28.5,29.86,NNW,337,10.0,17.0,71,0.00,,,0.00,Weather View 32 v70,2013-03-08 09:32:00,
2013-03-08 04:47:00,37.0,28.5,29.85,NNW,337,14.0,17.0,71,0.00,,,0.00,Weather View 32 v70,2013-03-08 09:47:00,
2013-03-08 05:00:00,37.0,28.5,29.85,NNW,337,12.0,17.0,71,0.00,,,0.00,Weather View 32 v70,2013-03-08 10:00:00,
2013-03-08 05:02:00,37.0,28.5,29.85,NNW,337,12.0,17.0,71,0.00,,,0.00,Weather View 32 v70,2013-03-08 10:02:00,
2013-03-08 05:17:00,36.0,27.5,29.88,NNW,337,13.0,17.0,71,0.00,,,0.00,Weather View 32 v70,2013-03-08 10:17:00,
2013-03-08 05:32:00,36.0,27.5,29.86,WSW,247,13.0,16.0,71,0.00,,,0.00,Weather View 32 v70,2013-03-08 10:32:00,
2013-03-08 05:47:00,35.0,26.5,29.88,NNW,337,12.0,16.0,71,0.00,,,0.00,Weather View 32 v70,2013-03-08 10:47:00,
2013-03-08 06:00:00,35.0,26.5,29.87,WSW,247,13.0,16.0,71,0.00,,,0.00,Weather View 32 v70,2013-03-08 11:00:00,
2013-03-08 06:02:00,35.0,26.5,29.87,WSW,247,13.0,16.0,71,0.00,,,0.00,Weather View 32 v70,2013-03-08 11:02:00,
2013-03-08 06:17:00,35.0,26.5,29.89,WSW,247,11.0,16.0,71,0.00,,,0.00,Weather View 32 v70,2013-03-08 11:17:00,
2013-03-08 06:32:00,35.0,26.5,29.88,WSW,247,9.0,16.0,71,0.00,,,0.00,Weather View 32 v70,2013-03-08 11:32:00,
2013-03-08 06:47:00,35.0,26.5,29.88,WSW,247,13.0,16.0,71,0.00,,,0.00,Weather View 32 v70,2013-03-08 11:47:00,
2013-03-08 07:00:00,35.0,26.5,29.88,NNW,337,12.0,16.0,71,0.00,,,0.00,Weather View 32 v70,2013-03-08 12:00:00,
2013-03-08 07:02:00,35.0,26.5,29.88,NNW,337,12.0,16.0,71,0.00,,,0.00,Weather View 32 v70,2013-03-08 12:02:00,
2013-03-08 07:17:00,36.0,27.5,29.88,NNW,337,10.0,16.0,71,0.00,,,0.00,Weather View 32 v70,2013-03-08 12:17:00,
2013-03-08 07:32:00,37.0,28.5,29.88,NNW,337,9.0,19.0,71,0.00,,,0.00,Weather View 32 v70,2013-03-08 12:32:00,
2013-03-08 07:47:00,38.0,29.1,29.89,NNW,337,10.0,19.0,70,0.00,,,0.00,Weather View 32 v70,2013-03-08 12:47:00,
2013-03-08 08:00:00,39.0,30.0,29.88,NNW,337,8.0,19.0,70,0.00,,,0.00,Weather View 32 v70,2013-03-08 13:00:00,
2013-03-08 08:02:00,39.0,30.0,29.88,NNW,337,8.0,19.0,70,0.00,,,0.00,Weather View 32 v70,2013-03-08 13:02:00,
2013-03-08 08:17:00,41.0,32.0,29.88,NNW,337,16.0,21.0,70,0.00,,,0.00,Weather View 32 v70,2013-03-08 13:17:00,
2013-03-08 08:32:00,41.0,32.0,29.87,NNW,337,19.0,25.0,70,0.00,,,0.00,Weather View 32 v70,2013-03-08 13:32:00,
2013-03-08 08:47:00,42.0,32.9,29.88,NNW,337,22.0,25.0,70,0.00,,,0.00,Weather View 32 v70,2013-03-08 13:47:00,
2013-03-08 09:00:00,43.0,34.2,29.86,NNW,337,14.0,25.0,71,0.00,,,0.00,Weather View 32 v70,2013-03-08 14:00:00,
2013-03-08 09:02:00,43.0,34.2,29.86,NNW,337,14.0,25.0,71,0.00,,,0.00,Weather View 32 v70,2013-03-08 14:02:00,
2013-03-08 09:17:00,44.0,35.2,29.89,NNW,337,17.0,25.0,71,0.00,,,0.00,Weather View 32 v70,2013-03-08 14:17:00,
2013-03-08 09:32:00,45.0,36.2,29.85,NNW,337,12.0,25.0,71,0.00,,,0.00,Weather View 32 v70,2013-03-08 14:32:00,
2013-03-08 09:47:00,46.0,37.1,29.85,NNW,337,16.0,25.0,71,0.00,,,0.00,Weather View 32 v70,2013-03-08 14:47:00,
2013-03-08 10:00:00,47.0,38.1,29.85,NNW,337,18.0,26.0,71,0.00,,,0.00,Weather View 32 v70,2013-03-08 15:00:00,
2013-03-08 10:02:00,47.0,38.1,29.85,NNW,337,18.0,26.0,71,0.00,,,0.00,Weather View 32 v70,2013-03-08 15:02:00,
2013-03-08 10:17:00,47.0,38.1,29.84,NNW,337,10.0,29.0,71,0.00,,,0.00,Weather View 32 v70,2013-03-08 15:17:00,
2013-03-08 10:32:00,48.0,39.4,29.83,NNW,337,15.0,29.0,72,0.00,,,0.00,Weather View 32 v70,2013-03-08 15:32:00,
2013-03-08 10:47:00,48.0,39.4,29.81,NNW,337,17.0,29.0,72,0.00,,,0.00,Weather View 32 v70,2013-03-08 15:47:00,
2013-03-08 11:00:00,49.0,40.4,29.80,NNW,337,13.0,29.0,72,0.00,,,0.00,Weather View 32 v70,2013-03-08 16:00:00,
2013-03-08 11:02:00,49.0,40.4,29.80,NNW,337,13.0,29.0,72,0.00,,,0.00,Weather View 32 v70,2013-03-08 16:02:00,
2013-03-08 11:17:00,49.0,40.4,29.80,NNW,337,17.0,29.0,72,0.00,,,0.00,Weather View 32 v70,2013-03-08 16:17:00,
2013-03-08 11:32:00,50.0,41.3,29.81,ENE,67,9.0,32.0,72,0.00,,,0.00,Weather View 32 v70,2013-03-08 16:32:00,
2013-03-08 11:47:00,49.0,40.4,29.79,NNW,337,10.0,35.0,72,0.00,,,0.00,Weather View 32 v70,2013-03-08 16:47:00,
2013-03-08 12:00:00,50.0,41.3,29.77,NNW,337,17.0,35.0,72,0.00,,,0.00,Weather View 32 v70,2013-03-08 17:00:00,
2013-03-08 12:02:00,50.0,41.3,29.77,NNW,337,17.0,35.0,72,0.00,,,0.00,Weather View 32 v70,2013-03-08 17:02:00,
2013-03-08 12:17:00,50.0,41.3,29.74,WSW,247,15.0,35.0,72,0.00,,,0.00,Weather View 32 v70,2013-03-08 17:17:00,
2013-03-08 12:32:00,51.0,42.3,29.75,NNW,337,14.0,35.0,72,0.00,,,0.00,Weather View 32 v70,2013-03-08 17:32:00,
2013-03-08 12:47:00,51.0,42.3,29.74,NNW,337,22.0,34.0,72,0.00,,,0.00,Weather View 32 v70,2013-03-08 17:47:00,
2013-03-08 13:00:00,51.0,42.6,29.76,WSW,247,17.0,34.0,73,0.00,,,0.00,Weather View 32 v70,2013-03-08 18:00:00,
2013-03-08 13:02:00,51.0,42.6,29.76,WSW,247,17.0,34.0,73,0.00,,,0.00,Weather View 32 v70,2013-03-08 18:02:00,
2013-03-08 13:17:00,52.0,43.2,29.75,NNW,337,16.0,34.0,72,0.00,,,0.00,Weather View 32 v70,2013-03-08 18:17:00,
2013-03-08 13:32:00,53.0,44.2,29.72,NNW,337,10.0,34.0,72,0.00,,,0.00,Weather View 32 v70,2013-03-08 18:32:00,
2013-03-08 13:47:00,53.0,44.2,29.71,WSW,247,20.0,34.0,72,0.00,,,0.00,Weather View 32 v70,2013-03-08 18:47:00,
2013-03-08 14:00:00,54.0,45.9,29.73,NNW,337,16.0,34.0,74,0.00,,,0.00,Weather View 32 v70,2013-03-08 19:00:00,
2013-03-08 14:02:00,54.0,45.9,29.73,NNW,337,16.0,34.0,74,0.00,,,0.00,Weather View 32 v70,2013-03-08 19:02:00,
2013-03-08 14:17:00,53.0,44.2,29.71,WSW,247,15.0,33.0,72,0.00,,,0.00,Weather View 32 v70,2013-03-08 19:17:00,
2013-03-08 14:32:00,54.0,45.5,29.69,NNW,337,16.0,32.0,73,0.00,,,0.00,Weather View 32 v70,2013-03-08 19:32:00,
2013-03-08 14:47:00,55.0,46.5,29.70,WSW,247,16.0,32.0,73,0.00,,,0.00,Weather View 32 v70,2013-03-08 19:47:00,
2013-03-08 15:00:00,55.0,46.5,29.68,NNW,337,15.0,32.0,73,0.00,,,0.00,Weather View 32 v70,2013-03-08 20:00:00,
2013-03-08 15:02:00,55.0,46.5,29.68,NNW,337,15.0,32.0,73,0.00,,,0.00,Weather View 32 v70,2013-03-08 20:02:00,
2013-03-08 15:17:00,54.0,45.5,29.70,NNW,337,20.0,32.0,73,0.00,,,0.00,Weather View 32 v70,2013-03-08 20:17:00,
2013-03-08 15:32:00,55.0,46.5,29.70,WSW,247,20.0,32.0,73,0.00,,,0.00,Weather View 32 v70,2013-03-08 20:32:00,
2013-03-08 15:47:00,55.0,46.5,29.69,NNW,337,20.0,32.0,73,0.00,,,0.00,Weather View 32 v70,2013-03-08 20:47:00,
2013-03-08 16:00:00,55.0,46.5,29.70,NNW,337,14.0,33.0,73,0.00,,,0.00,Weather View 32 v70,2013-03-08 21:00:00,
2013-03-08 16:02:00,55.0,46.5,29.70,NNW,337,14.0,33.0,73,0.00,,,0.00,Weather View 32 v70,2013-03-08 21:02:00,
2013-03-08 16:17:00,55.0,46.5,29.71,NNW,337,17.0,33.0,73,0.00,,,0.00,Weather View 32 v70,2013-03-08 21:17:00,
2013-03-08 16:32:00,55.0,46.5,29.70,NNW,337,12.0,33.0,73,0.00,,,0.00,Weather View 32 v70,2013-03-08 21:32:00,
2013-03-08 16:47:00,55.0,46.5,29.73,NNW,337,20.0,33.0,73,0.00,,,0.00,Weather View 32 v70,2013-03-08 21:47:00,
2013-03-08 17:00:00,55.0,46.5,29.71,WSW,247,18.0,30.0,73,0.00,,,0.00,Weather View 32 v70,2013-03-08 22:00:00,
2013-03-08 17:02:00,55.0,46.5,29.71,WSW,247,18.0,30.0,73,0.00,,,0.00,Weather View 32 v70,2013-03-08 22:02:00,
2013-03-08 17:17:00,55.0,46.5,29.71,NNW,337,15.0,30.0,73,0.00,,,0.00,Weather View 32 v70,2013-03-08 22:17:00,
2013-03-08 17:32:00,55.0,46.5,29.72,NNW,337,13.0,29.0,73,0.00,,,0.00,Weather View 32 v70,2013-03-08 22:32:00,
2013-03-08 17:47:00,55.0,46.5,29.74,NNW,337,12.0,29.0,73,0.00,,,0.00,Weather View 32 v70,2013-03-08 22:47:00,
2013-03-08 18:00:00,54.0,45.5,29.73,NNW,337,13.0,29.0,73,0.00,,,0.00,Weather View 32 v70,2013-03-08 23:00:00,
2013-03-08 18:03:00,54.0,45.5,29.73,NNW,337,13.0,29.0,73,0.00,,,0.00,Weather View 32 v70,2013-03-08 23:03:00,
2013-03-08 18:17:00,53.0,44.2,29.76,NNW,337,9.0,25.0,72,0.00,,,0.00,Weather View 32 v70,2013-03-08 23:17:00,
2013-03-08 18:32:00,53.0,44.2,29.75,NNW,337,7.0,23.0,72,0.00,,,0.00,Weather View 32 v70,2013-03-08 23:32:00,
2013-03-08 18:47:00,52.0,43.2,29.75,NNW,337,9.0,23.0,72,0.00,,,0.00,Weather View 32 v70,2013-03-08 23:47:00,
2013-03-08 19:02:00,51.0,42.3,29.76,NNW,337,7.0,23.0,72,0.00,,,0.00,Weather View 32 v70,2013-03-09 00:02:00,
2013-03-08 19:18:00,51.0,42.3,29.78,NNW,337,6.0,16.0,72,0.00,,,0.00,Weather View 32 v70,2013-03-09 00:18:00,
2013-03-08 19:32:00,50.0,41.3,29.77,NNW,337,9.0,14.0,72,0.00,,,0.00,Weather View 32 v70,2013-03-09 00:32:00,
2013-03-08 19:47:00,49.0,40.4,29.78,NNW,337,6.0,11.0,72,0.00,,,0.00,Weather View 32 v70,2013-03-09 00:47:00,
2013-03-08 20:02:00,49.0,40.4,29.81,NNW,337,9.0,10.0,72,0.00,,,0.00,Weather View 32 v70,2013-03-09 01:02:00,
2013-03-08 20:17:00,48.0,39.4,29.81,NNW,337,6.0,11.0,72,0.00,,,0.00,Weather View 32 v70,2013-03-09 01:17:00,
2013-03-08 20:32:00,48.0,39.4,29.81,NNW,337,9.0,11.0,72,0.00,,,0.00,Weather View 32 v70,2013-03-09 01:32:00,
2013-03-08 20:47:00,48.0,39.4,29.80,NNW,337,10.0,13.0,72,0.00,,,0.00,Weather View 32 v70,2013-03-09 01:47:00,
2013-03-08 21:02:00,48.0,39.4,29.81,NNW,337,7.0,13.0,72,0.00,,,0.00,Weather View 32 v70,2013-03-09 02:02:00,
2013-03-08 21:17:00,47.0,38.1,29.81,WSW,247,7.0,13.0,71,0.00,,,0.00,Weather View 32 v70,2013-03-09 02:17:00,
2013-03-08 21:32:00,47.0,38.1,29.81,NNW,337,7.0,13.0,71,0.00,,,0.00,Weather View 32 v70,2013-03-09 02:32:00,
2013-03-08 21:47:00,47.0,38.1,29.83,NNW,337,8.0,11.0,71,0.00,,,0.00,Weather View 32 v70,2013-03-09 02:47:00,
2013-03-08 22:02:00,46.0,37.1,29.85,NNW,337,7.0,10.0,71,0.00,,,0.00,Weather View 32 v70,2013-03-09 03:02:00,
2013-03-08 22:17:00,46.0,37.1,29.84,NNW,337,10.0,12.0,71,0.00,,,0.00,Weather View 32 v70,2013-03-09 03:17:00,
2013-03-08 22:32:00,45.0,36.2,29.86,NNW,337,9.0,12.0,71,0.00,,,0.00,Weather View 32 v70,2013-03-09 03:32:00,
2013-03-08 22:47:00,45.0,36.2,29.87,NNW,337,10.0,12.0,71,0.00,,,0.00,Weather View 32 v70,2013-03-09 03:47:00,
2013-03-08 23:02:00,45.0,36.2,29.89,NNW,337,12.0,15.0,71,0.00,,,0.00,Weather View 32 v70,2013-03-09 04:02:00,
2013-03-08 23:17:00,45.0,36.2,29.88,NNW,337,10.0,17.0,71,0.00,,,0.00,Weather View 32 v70,2013-03-09 04:17:00,
2013-03-08 23:32:00,45.0,36.2,29.88,NNW,337,10.0,17.0,71,0.00,,,0.00,Weather View 32 v70,2013-03-09 04:32:00,
2013-03-08 23:47:00,44.0,35.2,29.88,NNW,337,11.0,17.0,71,0.00,,,0.00,Weather View 32 v70,2013-03-09 04:47:00,